| time (UTC) | temp C | wind direction | speed KPH | gust KPH | rain 1hr cm | rain 24hr cm | rain mn cm | humidity % | barometer mb |
| 20260505140505 | 11 | 313 | 14.5 | 29.0 | 0.00 | 0.00 | 0.00 | 42 | 1010.0 |
| 20260505125005 | 12 | 310 | 14.5 | 29.0 | 0.00 | 0.00 | 0.00 | 41 | 1010.0 |
| 20260505124504 | 12 | 296 | 11.3 | 24.1 | 0.00 | 0.00 | 0.00 | 42 | 1010.0 |
| 20260505124004 | 12 | 296 | 12.9 | 22.5 | 0.00 | 0.00 | 0.00 | 43 | 1010.0 |
| 20260505123504 | 12 | 311 | 12.9 | 22.5 | 0.00 | 0.00 | 0.00 | 44 | 1010.0 |
| 20260505122506 | 11 | 313 | 17.7 | 30.6 | 0.00 | 0.00 | 0.00 | 45 | 1009.0 |
| 20260505122005 | 11 | 305 | 16.1 | 30.6 | 0.00 | 0.00 | 0.00 | 44 | 1009.0 |
| 20260505120006 | 12 | 303 | 12.9 | 25.7 | 0.00 | 0.00 | 0.00 | 45 | 1010.0 |
| 20260505115505 | 12 | 308 | 14.5 | 27.4 | 0.00 | 0.00 | 0.00 | 45 | 1009.0 |
| 20260505114504 | 12 | 307 | 14.5 | 29.0 | 0.00 | 0.00 | 0.00 | 44 | 1009.0 |
| 20260505114005 | 12 | 290 | 12.9 | 24.1 | 0.00 | 0.00 | 0.00 | 45 | 1009.0 |
| 20260505113504 | 12 | 277 | 11.3 | 24.1 | 0.00 | 0.00 | 0.00 | 46 | 1009.0 |
| 20260505113005 | 12 | 292 | 9.7 | 17.7 | 0.00 | 0.00 | 0.00 | 45 | 1009.0 |
| 20260505112505 | 12 | 282 | 9.7 | 17.7 | 0.00 | 0.00 | 0.00 | 50 | 1009.0 |
| 20260505111505 | 12 | 268 | 8.0 | 17.7 | 0.00 | 0.00 | 0.00 | 48 | 1009.0 |
| 20260505102006 | 11 | 307 | 12.9 | 22.5 | 0.00 | 0.00 | 0.00 | 46 | 1009.0 |
| 20260505101505 | 12 | 311 | 14.5 | 24.1 | 0.00 | 0.00 | 0.00 | 47 | 1009.0 |
| 20260505101005 | 11 | 311 | 12.9 | 24.1 | 0.00 | 0.00 | 0.00 | 48 | 1009.0 |
| 20260505100005 | 11 | 279 | 11.3 | 29.0 | 0.00 | 0.00 | 0.00 | 46 | 1009.0 |
| 20260505095505 | 12 | 301 | 11.3 | 29.0 | 0.00 | 0.00 | 0.00 | 46 | 1009.0 |
| 20260505095004 | 12 | 305 | 11.3 | 24.1 | 0.00 | 0.00 | 0.00 | 45 | 1009.0 |
| 20260505094505 | 12 | 301 | 12.9 | 25.7 | 0.00 | 0.00 | 0.00 | 47 | 1009.0 |
| 20260505093005 | 12 | 260 | 8.0 | 17.7 | 0.00 | 0.00 | 0.00 | 47 | 1010.0 |
| 20260505092505 | 12 | 276 | 8.0 | 17.7 | 0.00 | 0.00 | 0.00 | 48 | 1010.0 |
| 20260505092005 | 12 | 300 | 11.3 | 22.5 | 0.00 | 0.00 | 0.00 | 50 | 1010.0 |
| 20260505091505 | 11 | 303 | 9.7 | 22.5 | 0.00 | 0.00 | 0.00 | 49 | 1010.0 |
| 20260505091004 | 12 | 299 | 11.3 | 22.5 | 0.00 | 0.00 | 0.00 | 49 | 1010.0 |
| 20260505090505 | 11 | 297 | 11.3 | 22.5 | 0.00 | 0.00 | 0.00 | 50 | 1010.0 |
| 20260505090005 | 12 | 295 | 9.7 | 17.7 | 0.00 | 0.00 | 0.00 | 50 | 1010.0 |
| 20260505085505 | 12 | 280 | 9.7 | 16.1 | 0.00 | 0.00 | 0.00 | 53 | 1010.0 |
| 20260505084505 | 11 | 274 | 8.0 | 16.1 | 0.00 | 0.00 | 0.00 | 53 | 1010.0 |
| 20260505084006 | 11 | 289 | 8.0 | 16.1 | 0.00 | 0.00 | 0.00 | 56 | 1010.0 |
| 20260505083505 | 11 | 309 | 9.7 | 17.7 | 0.00 | 0.00 | 0.00 | 56 | 1010.0 |
| 20260505083005 | 11 | 308 | 9.7 | 17.7 | 0.00 | 0.00 | 0.00 | 54 | 1010.0 |
| 20260505082504 | 11 | 299 | 9.7 | 16.1 | 0.00 | 0.00 | 0.00 | 56 | 1010.0 |
| 20260505082005 | 11 | 300 | 9.7 | 16.1 | 0.00 | 0.00 | 0.00 | 57 | 1010.0 |
| 20260505081004 | 11 | 309 | 17.7 | 38.6 | 0.00 | 0.00 | 0.00 | 59 | 1010.0 |
| 20260505080007 | 11 | 295 | 11.3 | 25.7 | 0.00 | 0.00 | 0.00 | 59 | 1010.0 |
| 20260505075504 | 11 | 304 | 11.3 | 25.7 | 0.00 | 0.00 | 0.00 | 58 | 1009.0 |
| 20260505075006 | 11 | 309 | 11.3 | 22.5 | 0.00 | 0.00 | 0.00 | 58 | 1009.0 |
| 20260505074505 | 11 | 307 | 9.7 | 22.5 | 0.00 | 0.00 | 0.00 | 59 | 1009.0 |
| 20260505074005 | 11 | 303 | 8.0 | 19.3 | 0.00 | 0.00 | 0.00 | 63 | 1009.0 |
| 20260505073505 | 11 | 310 | 11.3 | 20.9 | 0.00 | 0.00 | 0.00 | 62 | 1009.0 |
| 20260505073007 | 11 | 293 | 9.7 | 20.9 | 0.00 | 0.00 | 0.00 | 62 | 1009.0 |
| 20260505072505 | 11 | 272 | 9.7 | 16.1 | 0.00 | 0.00 | 0.00 | 64 | 1009.0 |
| 20260505072005 | 10 | 291 | 9.7 | 16.1 | 0.00 | 0.00 | 0.00 | 64 | 1009.0 |
| 20260505071504 | 10 | 304 | 11.3 | 24.1 | 0.00 | 0.00 | 0.00 | 64 | 1009.0 |
| 20260505071005 | 10 | 311 | 14.5 | 24.1 | 0.00 | 0.00 | 0.00 | 63 | 1009.0 |
| 20260505070505 | 10 | 314 | 11.3 | 24.1 | 0.00 | 0.00 | 0.00 | 62 | 1009.0 |
| 20260505070005 | 10 | 307 | 6.4 | 12.9 | 0.00 | 0.00 | 0.00 | 65 | 1009.0 |
| 20260505065005 | 10 | 306 | 8.0 | 22.5 | 0.00 | 0.00 | 0.00 | 69 | 1009.0 |
| 20260505064504 | 10 | 295 | 9.7 | 17.7 | 0.00 | 0.00 | 0.00 | 66 | 1009.0 |
| 20260505064005 | 10 | 281 | 9.7 | 17.7 | 0.00 | 0.00 | 0.00 | 66 | 1009.0 |
| 20260505063004 | 10 | 274 | 6.4 | 17.7 | 0.00 | 0.00 | 0.00 | 68 | 1009.0 |
| 20260505062504 | 9 | 254 | 6.4 | 17.7 | 0.00 | 0.00 | 0.00 | 70 | 1009.0 |
| 20260505062004 | 9 | 268 | 9.7 | 20.9 | 0.00 | 0.00 | 0.00 | 72 | 1009.0 |
| 20260505061504 | 10 | 284 | 9.7 | 20.9 | 0.00 | 0.00 | 0.00 | 71 | 1009.0 |
| 20260505061004 | 10 | 294 | 8.0 | 17.7 | 0.00 | 0.00 | 0.00 | 72 | 1009.0 |
| 20260505060504 | 9 | 275 | 6.4 | 17.7 | 0.00 | 0.00 | 0.00 | 74 | 1009.0 |
| 20260505055005 | 8 | 307 | 11.3 | 20.9 | 0.00 | 0.00 | 0.00 | 78 | 1009.0 |
| 20260505053504 | 8 | 306 | 11.3 | 17.7 | 0.00 | 0.00 | 0.00 | 80 | 1008.0 |
| 20260505052504 | 8 | 305 | 6.4 | 17.7 | 0.00 | 0.00 | 0.00 | 82 | 1009.0 |
| 20260505052005 | 8 | 288 | 4.8 | 14.5 | 0.00 | 0.00 | 0.00 | 85 | 1009.0 |
| 20260505051505 | 8 | 268 | 4.8 | 14.5 | 0.00 | 0.00 | 0.00 | 85 | 1009.0 |
| 20260505051004 | 8 | 266 | 6.4 | 14.5 | 0.00 | 0.00 | 0.00 | 86 | 1008.0 |
| 20260505050504 | 8 | 276 | 4.8 | 11.3 | 0.00 | 0.00 | 0.00 | 86 | 1008.0 |
| 20260505041505 | 7 | 267 | 9.7 | 22.5 | 0.00 | 0.00 | 0.00 | 85 | 1008.0 |
| 20260505041005 | 7 | 258 | 9.7 | 14.5 | 0.00 | 0.00 | 0.00 | 85 | 1008.0 |
| 20260505040504 | 7 | 258 | 9.7 | 14.5 | 0.00 | 0.00 | 0.00 | 86 | 1008.0 |
| 20260505035005 | 7 | 262 | 4.8 | 14.5 | 0.00 | 0.00 | 0.00 | 86 | 1008.0 |
| 20260505034505 | 7 | 259 | 8.0 | 16.1 | 0.00 | 0.00 | 0.00 | 86 | 1008.0 |
| 20260505034004 | 7 | 256 | 8.0 | 17.7 | 0.00 | 0.00 | 0.00 | 86 | 1006.9 |
| 20260505033006 | 7 | 272 | 8.0 | 19.3 | 0.00 | 0.15 | 0.00 | 85 | 1006.9 |
| 20260505032505 | 7 | 260 | 11.3 | 25.7 | 0.00 | 0.15 | 0.00 | 85 | 1008.0 |
| 20260505032004 | 7 | 257 | 11.3 | 27.4 | 0.00 | 0.15 | 0.00 | 85 | 1008.0 |
| 20260505031505 | 7 | 260 | 11.3 | 27.4 | 0.00 | 0.15 | 0.00 | 86 | 1008.0 |
| 20260505031006 | 7 | 259 | 11.3 | 24.1 | 0.00 | 0.15 | 0.00 | 86 | 1008.0 |
| 20260505030005 | 7 | 271 | 11.3 | 17.7 | 0.00 | 0.15 | 0.00 | 86 | 1008.0 |
| 20260505025006 | 7 | 267 | 9.7 | 19.3 | 0.00 | 0.15 | 0.00 | 87 | 1008.0 |
| 20260505024504 | 7 | 266 | 9.7 | 20.9 | 0.00 | 0.15 | 0.00 | 87 | 1008.0 |
| 20260505024005 | 7 | 270 | 8.0 | 20.9 | 0.00 | 0.15 | 0.00 | 87 | 1008.0 |
| 20260505023506 | 7 | 277 | 6.4 | 19.3 | 0.00 | 0.15 | 0.00 | 87 | 1008.0 |
| 20260505022504 | 7 | 267 | 9.7 | 22.5 | 0.00 | 0.15 | 0.00 | 87 | 1008.0 |
| 20260505022007 | 7 | 263 | 9.7 | 22.5 | 0.00 | 0.15 | 0.00 | 87 | 1008.0 |
| 20260505021504 | 7 | 260 | 6.4 | 16.1 | 0.00 | 0.15 | 0.00 | 87 | 1008.0 |
| 20260505020505 | 7 | 264 | 8.0 | 14.5 | 0.00 | 0.15 | 0.00 | 87 | 1009.0 |
| 20260505020005 | 7 | 270 | 6.4 | 12.9 | 0.00 | 0.15 | 0.00 | 86 | 1009.0 |
| 20260505015504 | 7 | 265 | 6.4 | 17.7 | 0.00 | 0.15 | 0.00 | 86 | 1009.0 |
| 20260505015006 | 7 | 263 | 6.4 | 25.7 | 0.00 | 0.15 | 0.00 | 87 | 1009.0 |
| 20260505014005 | 7 | 270 | 9.7 | 19.3 | 0.00 | 0.15 | 0.00 | 87 | 1009.0 |
| 20260505013504 | 7 | 262 | 8.0 | 22.5 | 0.00 | 0.15 | 0.00 | 87 | 1009.0 |
| 20260505013005 | 7 | 270 | 8.0 | 22.5 | 0.00 | 0.15 | 0.00 | 87 | 1009.0 |
| 20260505012504 | 7 | 276 | 8.0 | 20.9 | 0.00 | 0.15 | 0.00 | 87 | 1010.0 |
| 20260505012006 | 7 | 261 | 4.8 | 20.9 | 0.00 | 0.28 | 0.00 | 87 | 1010.0 |
| 20260505011005 | 7 | 260 | 8.0 | 19.3 | 0.00 | 0.28 | 0.00 | 87 | 1009.0 |
| 20260505010504 | 7 | 260 | 9.7 | 19.3 | 0.00 | 0.28 | 0.00 | 87 | 1009.0 |
| 20260505010005 | 7 | 268 | 9.7 | 19.3 | 0.00 | 0.28 | 0.00 | 87 | 1009.0 |
| 20260505005504 | 7 | 266 | 8.0 | 17.7 | 0.00 | 0.28 | 0.00 | 87 | 1009.0 |
| 20260505005006 | 7 | 266 | 6.4 | 17.7 | 0.00 | 0.28 | 0.00 | 87 | 1009.0 |
| 20260505004505 | 7 | 273 | 4.8 | 12.9 | 0.00 | 0.28 | 0.00 | 86 | 1009.0 |
| 20260505004005 | 7 | 268 | 4.8 | 14.5 | 0.00 | 0.28 | 0.00 | 86 | 1010.0 |
| 20260505003504 | 7 | 260 | 8.0 | 20.9 | 0.00 | 0.28 | 0.00 | 86 | 1010.0 |
| 20260505003005 | 7 | 263 | 8.0 | 20.9 | 0.00 | 0.28 | 0.00 | 87 | 1010.0 |
| 20260505002504 | 7 | 263 | 8.0 | 12.9 | 0.00 | 0.28 | 0.00 | 87 | 1009.0 |
| 20260505002005 | 7 | 254 | 9.7 | 22.5 | 0.00 | 0.28 | 0.00 | 87 | 1009.0 |
| 20260505001504 | 7 | 259 | 9.7 | 22.5 | 0.00 | 0.28 | 0.00 | 87 | 1009.0 |
| 20260505001005 | 7 | 268 | 9.7 | 16.1 | 0.00 | 0.28 | 0.00 | 87 | 1010.0 |
| 20260505000505 | 7 | 271 | 9.7 | 17.7 | 0.00 | 0.28 | 0.00 | 87 | 1010.0 |
| 20260505000005 | 7 | 270 | 11.3 | 17.7 | 0.00 | 0.28 | 0.00 | 87 | 1010.0 |
| 20260504235505 | 7 | 261 | 9.7 | 16.1 | 0.00 | 0.28 | 0.00 | 87 | 1010.0 |
| 20260504235005 | 7 | 269 | 8.0 | 19.3 | 0.00 | 0.41 | 0.00 | 87 | 1010.0 |
| 20260504234504 | 7 | 270 | 4.8 | 19.3 | 0.00 | 0.41 | 0.00 | 87 | 1010.0 |
| 20260504234005 | 7 | 264 | 4.8 | 16.1 | 0.00 | 0.41 | 0.00 | 87 | 1010.0 |
| 20260504233005 | 7 | 266 | 6.4 | 22.5 | 0.00 | 0.41 | 0.00 | 87 | 1010.0 |
| 20260504232504 | 7 | 267 | 9.7 | 22.5 | 0.00 | 0.41 | 0.00 | 87 | 1010.0 |
| 20260504232005 | 7 | 261 | 9.7 | 19.3 | 0.00 | 0.41 | 0.00 | 87 | 1010.0 |
| 20260504231504 | 7 | 255 | 8.0 | 16.1 | 0.00 | 0.41 | 0.00 | 87 | 1010.0 |
| 20260504231004 | 7 | 268 | 8.0 | 19.3 | 0.00 | 0.41 | 0.00 | 87 | 1010.0 |
| 20260504230505 | 7 | 273 | 9.7 | 19.3 | 0.00 | 0.41 | 0.00 | 87 | 1010.0 |
| 20260504230006 | 7 | 268 | 9.7 | 17.7 | 0.00 | 0.41 | 0.00 | 87 | 1010.0 |
| 20260504225506 | 7 | 266 | 9.7 | 16.1 | 0.00 | 0.41 | 0.00 | 86 | 1010.0 |
| 20260504225005 | 7 | 258 | 9.7 | 16.1 | 0.00 | 0.41 | 0.00 | 86 | 1010.0 |
| 20260504224504 | 7 | 255 | 6.4 | 16.1 | 0.00 | 0.41 | 0.00 | 85 | 1010.0 |
| 20260504224005 | 7 | 268 | 6.4 | 16.1 | 0.00 | 0.41 | 0.00 | 84 | 1010.0 |
| 20260504223006 | 7 | 262 | 4.8 | 16.1 | 0.00 | 0.41 | 0.00 | 83 | 1010.0 |
| 20260504222505 | 7 | 278 | 3.2 | 16.1 | 0.00 | 0.41 | 0.00 | 83 | 1010.0 |
| 20260504222004 | 7 | 267 | 4.8 | 16.1 | 0.00 | 0.41 | 0.00 | 82 | 1010.0 |
| 20260504221504 | 7 | 260 | 4.8 | 16.1 | 0.00 | 0.41 | 0.00 | 82 | 1010.0 |
| 20260504220505 | 7 | 270 | 6.4 | 16.1 | 0.00 | 0.41 | 0.00 | 81 | 1010.0 |
| 20260504215505 | 7 | 263 | 9.7 | 22.5 | 0.00 | 0.41 | 0.41 | 81 | 1010.0 |
| 20260504214505 | 7 | 267 | 9.7 | 22.5 | 0.00 | 0.41 | 0.41 | 82 | 1010.0 |
| 20260504214005 | 8 | 264 | 9.7 | 16.1 | 0.00 | 0.41 | 0.41 | 82 | 1010.0 |
| 20260504213504 | 8 | 264 | 9.7 | 22.5 | 0.00 | 0.41 | 0.41 | 82 | 1010.0 |
| 20260504212505 | 8 | 257 | 6.4 | 14.5 | 0.00 | 0.41 | 0.41 | 83 | 1010.0 |
| 20260504212005 | 8 | 267 | 6.4 | 14.5 | 0.00 | 0.41 | 0.41 | 82 | 1010.0 |
| 20260504211504 | 8 | 270 | 6.4 | 14.5 | 0.00 | 0.41 | 0.41 | 82 | 1010.0 |
| 20260504210504 | 8 | 261 | 6.4 | 16.1 | 0.00 | 0.41 | 0.41 | 82 | 1010.0 |
| 20260504210004 | 8 | 266 | 8.0 | 16.1 | 0.00 | 0.41 | 0.41 | 83 | 1010.0 |
| 20260504205505 | 8 | 265 | 8.0 | 17.7 | 0.00 | 0.41 | 0.41 | 83 | 1010.0 |
| 20260504205006 | 8 | 264 | 8.0 | 17.7 | 0.00 | 0.41 | 0.41 | 83 | 1010.0 |
| 20260504203506 | 8 | 269 | 6.4 | 16.1 | 0.00 | 0.41 | 0.41 | 83 | 1010.0 |
| 20260504203005 | 8 | 270 | 8.0 | 17.7 | 0.00 | 0.41 | 0.41 | 83 | 1010.0 |
| 20260504202504 | 8 | 272 | 8.0 | 17.7 | 0.00 | 0.41 | 0.41 | 83 | 1010.0 |
| 20260504202004 | 8 | 270 | 6.4 | 16.1 | 0.00 | 0.41 | 0.41 | 82 | 1010.0 |
| 20260504201504 | 8 | 273 | 8.0 | 16.1 | 0.00 | 0.41 | 0.41 | 81 | 1010.0 |
| 20260504201005 | 8 | 270 | 9.7 | 16.1 | 0.00 | 0.41 | 0.41 | 81 | 1010.0 |
| 20260504200505 | 8 | 264 | 8.0 | 14.5 | 0.00 | 0.41 | 0.41 | 81 | 1010.0 |
| 20260504200005 | 8 | 270 | 8.0 | 19.3 | 0.00 | 0.41 | 0.41 | 81 | 1010.0 |
| 20260504195504 | 8 | 265 | 9.7 | 19.3 | 0.00 | 0.41 | 0.41 | 80 | 1010.0 |
| 20260504194504 | 8 | 262 | 11.3 | 20.9 | 0.00 | 0.41 | 0.41 | 80 | 1010.0 |
| 20260504194005 | 8 | 262 | 9.7 | 20.9 | 0.00 | 0.41 | 0.41 | 79 | 1010.0 |
| 20260504193005 | 8 | 264 | 8.0 | 16.1 | 0.00 | 0.41 | 0.41 | 79 | 1010.0 |
| 20260504192005 | 8 | 260 | 3.2 | 14.5 | 0.00 | 0.41 | 0.41 | 77 | 1010.0 |
| 20260504191505 | 9 | 268 | 3.2 | 14.5 | 0.00 | 0.41 | 0.41 | 76 | 1010.0 |
| 20260504191005 | 9 | 265 | 1.6 | 8.0 | 0.00 | 0.41 | 0.41 | 76 | 1010.0 |
| 20260504190504 | 9 | 233 | 1.6 | 14.5 | 0.00 | 0.41 | 0.41 | 75 | 1010.0 |
| 20260504190006 | 9 | 248 | 6.4 | 14.5 | 0.00 | 0.41 | 0.41 | 75 | 1010.0 |
| 20260504185004 | 10 | 270 | 8.0 | 20.9 | 0.00 | 0.41 | 0.41 | 74 | 1009.0 |
| 20260504184505 | 10 | 263 | 8.0 | 20.9 | 0.00 | 0.41 | 0.41 | 73 | 1009.0 |
| 20260504184005 | 10 | 263 | 8.0 | 20.9 | 0.00 | 0.41 | 0.41 | 73 | 1009.0 |
| 20260504183504 | 10 | 268 | 9.7 | 30.6 | 0.00 | 0.41 | 0.41 | 73 | 1009.0 |
| 20260504183005 | 10 | 263 | 9.7 | 30.6 | 0.00 | 0.41 | 0.41 | 73 | 1009.0 |
| 20260504182505 | 10 | 261 | 9.7 | 22.5 | 0.00 | 0.41 | 0.41 | 73 | 1009.0 |
| 20260504181504 | 10 | 253 | 9.7 | 20.9 | 0.00 | 0.41 | 0.41 | 72 | 1009.0 |
| 20260504181004 | 10 | 252 | 9.7 | 20.9 | 0.00 | 0.41 | 0.41 | 72 | 1009.0 |
| 20260504180504 | 11 | 254 | 9.7 | 16.1 | 0.00 | 0.41 | 0.41 | 72 | 1009.0 |
| 20260504175504 | 11 | 270 | 9.7 | 20.9 | 0.00 | 0.41 | 0.41 | 71 | 1008.0 |
| 20260504175005 | 11 | 267 | 11.3 | 24.1 | 0.00 | 0.41 | 0.41 | 70 | 1008.0 |
| 20260504174505 | 11 | 270 | 12.9 | 24.1 | 0.00 | 0.41 | 0.41 | 70 | 1008.0 |
| 20260504174005 | 11 | 275 | 11.3 | 22.5 | 0.00 | 0.41 | 0.41 | 69 | 1008.0 |
| 20260504173505 | 11 | 272 | 9.7 | 22.5 | 0.00 | 0.41 | 0.41 | 68 | 1008.0 |
| 20260504172505 | 12 | 265 | 9.7 | 22.5 | 0.00 | 0.41 | 0.41 | 65 | 1009.0 |
| 20260504172006 | 12 | 268 | 8.0 | 19.3 | 0.00 | 0.41 | 0.41 | 64 | 1009.0 |
| 20260504171505 | 12 | 267 | 8.0 | 19.3 | 0.00 | 0.41 | 0.41 | 63 | 1009.0 |
| 20260504171005 | 12 | 266 | 8.0 | 12.9 | 0.00 | 0.41 | 0.41 | 63 | 1009.0 |
| 20260504151005 | 13 | 269 | 12.9 | 24.1 | 0.00 | 0.41 | 0.41 | 57 | 1008.0 |
| 20260504150505 | 13 | 263 | 11.3 | 22.5 | 0.00 | 0.41 | 0.41 | 57 | 1008.0 |